Simultaneous Nadir Overpasses (SNOs) Predictions

Prediction of SNOs near US between AQUA and NPP Satellite Orbit:

Table of predicted SNOs near US for the next 10.0 days since TLE Epoch: 2/29/2020
Index Date (AQUA) Time (AQUA) AQUA Lat,Lon Date (NPP) Time (NPP) NPP Lat,Lon Distance(km) Time Diff (sec)
1 02/29/2020 07:19:02 49.90, -76.00 02/29/2020 07:19:47 50.32, -78.17 161.98 45
2 02/29/2020 08:57:55 49.90,-100.71 02/29/2020 09:01:15 50.43,-103.49 206.47 200
3 03/02/2020 18:17:13 49.99, -80.23 03/02/2020 18:10:05 49.74, -81.74 111.94 428
4 03/02/2020 19:56:06 49.99,-104.95 03/02/2020 19:51:33 49.63,-107.06 157.16 273
5 03/02/2020 21:31:14 36.57,-124.99 03/02/2020 21:29:09 36.08,-127.50 231.84 125
6 03/05/2020 09:24:48 20.05,-114.25 03/05/2020 09:16:28 19.48,-114.85 89.14 500
7 03/08/2020 06:31:08 44.61, -65.69 03/08/2020 06:30:37 44.95, -67.72 164.93 31
8 03/08/2020 08:08:32 49.90, -88.36 03/08/2020 08:10:33 50.36, -90.85 184.77 121
9 03/08/2020 09:47:25 49.91,-113.08 03/08/2020 09:52:00 50.53,-116.15 229.15 275




NCC Satellite Simultaneous Nadir Overpasses (SNOs) Prediction Service
